| time (UTC) | temp F | wind direction | speed MPH | gust MPH | rain 1hr in | rain 24hr in | rain mn in | humidity % | barometer mb |
| 20260506172503 | 61 | 274 | 6.0 | 9.0 | 0.00 | 0.00 | 0.00 | 79 | 1010.1 |
| 20260506172006 | 61 | 249 | 6.0 | 9.0 | 0.00 | 0.00 | 0.00 | 79 | 1010.1 |
| 20260506171512 | 61 | 95 | 5.0 | 9.0 | 0.00 | 0.00 | 0.00 | 79 | 1010.1 |
| 20260506171008 | 61 | 244 | 5.0 | 9.0 | 0.00 | 0.00 | 0.00 | 79 | 1010.1 |
| 20260506170505 | 61 | 247 | 5.0 | 8.0 | 0.00 | 0.00 | 0.00 | 79 | 1010.3 |
| 20260506170030 | 61 | 251 | 5.0 | 9.0 | 0.00 | 0.00 | 0.00 | 79 | 1010.3 |
| 20260506165506 | 61 | 252 | 6.0 | 10.0 | 0.00 | 0.00 | 0.00 | 79 | 1010.4 |
| 20260506165007 | 61 | 240 | 6.0 | 11.0 | 0.00 | 0.00 | 0.00 | 79 | 1010.4 |
| 20260506164542 | 61 | 246 | 6.0 | 11.0 | 0.00 | 0.00 | 0.00 | 79 | 1010.4 |
| 20260506164003 | 61 | 232 | 7.0 | 10.0 | 0.00 | 0.00 | 0.00 | 79 | 1010.3 |
| 20260506163503 | 61 | 258 | 7.0 | 10.0 | 0.00 | 0.00 | 0.00 | 79 | 1010.4 |
| 20260506163013 | 61 | 241 | 6.0 | 11.0 | 0.00 | 0.00 | 0.00 | 79 | 1010.3 |
| 20260506162508 | 62 | 221 | 6.0 | 12.0 | 0.00 | 0.00 | 0.00 | 78 | 1010.4 |
| 20260506162003 | 62 | 262 | 8.0 | 16.0 | 0.00 | 0.00 | 0.00 | 78 | 1010.3 |
| 20260506161512 | 62 | 227 | 7.0 | 16.0 | 0.00 | 0.00 | 0.00 | 78 | 1010.8 |
| 20260506161008 | 62 | 252 | 7.0 | 11.0 | 0.00 | 0.00 | 0.00 | 79 | 1010.7 |
| 20260506160507 | 61 | 244 | 8.0 | 11.0 | 0.00 | 0.00 | 0.00 | 79 | 1010.9 |
| 20260506160016 | 61 | 240 | 7.0 | 12.0 | 0.00 | 0.00 | 0.00 | 79 | 1010.9 |
| 20260506155506 | 61 | 219 | 6.0 | 12.0 | 0.00 | 0.00 | 0.00 | 80 | 1010.9 |
| 20260506155007 | 61 | 235 | 6.0 | 10.0 | 0.00 | 0.00 | 0.00 | 80 | 1011.0 |
| 20260506154524 | 61 | 238 | 6.0 | 11.0 | 0.00 | 0.00 | 0.00 | 79 | 1010.9 |
| 20260506154008 | 61 | 225 | 6.0 | 12.0 | 0.00 | 0.00 | 0.00 | 79 | 1011.0 |
| 20260506153514 | 61 | 224 | 7.0 | 12.0 | 0.00 | 0.00 | 0.00 | 79 | 1011.1 |
| 20260506153027 | 61 | 226 | 7.0 | 12.0 | 0.00 | 0.00 | 0.00 | 79 | 1011.0 |
| 20260506152503 | 61 | 229 | 6.0 | 11.0 | 0.00 | 0.00 | 0.00 | 78 | 1010.9 |
| 20260506152003 | 62 | 236 | 7.0 | 11.0 | 0.00 | 0.00 | 0.00 | 78 | 1011.1 |
| 20260506151508 | 62 | 228 | 6.0 | 10.0 | 0.00 | 0.00 | 0.00 | 78 | 1011.3 |
| 20260506151003 | 62 | 242 | 7.0 | 10.0 | 0.00 | 0.00 | 0.00 | 77 | 1011.1 |
| 20260506150503 | 63 | 258 | 6.0 | 10.0 | 0.00 | 0.00 | 0.00 | 77 | 1011.1 |
| 20260506150015 | 62 | 267 | 5.0 | 11.0 | 0.00 | 0.00 | 0.00 | 78 | 1011.1 |
| 20260506145507 | 62 | 225 | 7.0 | 11.0 | 0.00 | 0.00 | 0.00 | 78 | 1011.1 |
| 20260506145008 | 62 | 242 | 6.0 | 10.0 | 0.00 | 0.00 | 0.00 | 79 | 1011.0 |
| 20260506144526 | 62 | 228 | 6.0 | 10.0 | 0.00 | 0.00 | 0.00 | 79 | 1011.2 |
| 20260506144013 | 61 | 238 | 6.0 | 10.0 | 0.00 | 0.00 | 0.00 | 79 | 1011.2 |
| 20260506143508 | 61 | 227 | 5.0 | 11.0 | 0.00 | 0.00 | 0.00 | 80 | 1011.4 |
| 20260506143024 | 61 | 243 | 7.0 | 11.0 | 0.00 | 0.00 | 0.00 | 80 | 1011.5 |
| 20260506142513 | 61 | 225 | 6.0 | 11.0 | 0.00 | 0.00 | 0.00 | 80 | 1011.5 |
| 20260506142009 | 61 | 246 | 6.0 | 11.0 | 0.00 | 0.00 | 0.00 | 79 | 1011.4 |
| 20260506141530 | 61 | 208 | 5.0 | 11.0 | 0.00 | 0.00 | 0.00 | 79 | 1011.3 |
| 20260506141003 | 61 | 261 | 6.0 | 10.0 | 0.00 | 0.00 | 0.00 | 79 | 1011.4 |
| 20260506140504 | 61 | 236 | 7.0 | 10.0 | 0.00 | 0.00 | 0.00 | 79 | 1011.3 |
| 20260506140010 | 61 | 254 | 6.0 | 12.0 | 0.00 | 0.00 | 0.00 | 79 | 1011.2 |
| 20260506135503 | 61 | 243 | 6.0 | 12.0 | 0.00 | 0.00 | 0.00 | 79 | 1011.2 |
| 20260506135003 | 61 | 232 | 7.0 | 10.0 | 0.00 | 0.00 | 0.00 | 78 | 1011.2 |
| 20260506134516 | 61 | 223 | 6.0 | 10.0 | 0.00 | 0.00 | 0.00 | 79 | 1011.1 |
| 20260506134007 | 61 | 244 | 6.0 | 10.0 | 0.00 | 0.00 | 0.00 | 80 | 1011.3 |
| 20260506133509 | 61 | 242 | 6.0 | 10.0 | 0.00 | 0.00 | 0.00 | 79 | 1011.2 |
| 20260506133027 | 61 | 232 | 6.0 | 10.0 | 0.00 | 0.00 | 0.00 | 79 | 1011.2 |
| 20260506132509 | 61 | 240 | 5.0 | 10.0 | 0.00 | 0.00 | 0.00 | 80 | 1011.0 |
| 20260506132008 | 61 | 250 | 6.0 | 10.0 | 0.00 | 0.00 | 0.00 | 79 | 1011.1 |
| 20260506131522 | 61 | 240 | 5.0 | 10.0 | 0.00 | 0.00 | 0.00 | 80 | 1011.4 |
| 20260506131008 | 61 | 233 | 6.0 | 9.0 | 0.00 | 0.00 | 0.00 | 79 | 1011.2 |
| 20260506130513 | 61 | 236 | 5.0 | 9.0 | 0.00 | 0.00 | 0.00 | 79 | 1011.6 |
| 20260506130026 | 61 | 188 | 6.0 | 10.0 | 0.00 | 0.00 | 0.00 | 80 | 1011.6 |
| 20260506125507 | 61 | 250 | 5.0 | 10.0 | 0.00 | 0.00 | 0.00 | 80 | 1011.5 |
| 20260506125005 | 61 | 234 | 6.0 | 9.0 | 0.00 | 0.00 | 0.00 | 80 | 1011.5 |
| 20260506124514 | 61 | 222 | 5.0 | 10.0 | 0.00 | 0.00 | 0.00 | 81 | 1011.5 |
| 20260506124007 | 60 | 247 | 6.0 | 10.0 | 0.00 | 0.00 | 0.00 | 81 | 1011.6 |
| 20260506123508 | 60 | 252 | 6.0 | 9.0 | 0.00 | 0.00 | 0.00 | 81 | 1011.6 |
| 20260506123020 | 60 | 262 | 5.0 | 9.0 | 0.00 | 0.00 | 0.00 | 82 | 1011.6 |
| 20260506122507 | 60 | 237 | 6.0 | 9.0 | 0.00 | 0.00 | 0.00 | 82 | 1011.5 |
| 20260506122010 | 60 | 233 | 6.0 | 9.0 | 0.00 | 0.00 | 0.00 | 82 | 1011.4 |
| 20260506121524 | 59 | 197 | 6.0 | 9.0 | 0.00 | 0.00 | 0.00 | 82 | 1011.4 |
| 20260506121009 | 59 | 228 | 6.0 | 10.0 | 0.00 | 0.00 | 0.00 | 82 | 1011.5 |
| 20260506120509 | 59 | 232 | 6.0 | 10.0 | 0.00 | 0.00 | 0.00 | 83 | 1011.6 |
| 20260506120047 | 59 | 266 | 6.0 | 9.0 | 0.00 | 0.00 | 0.00 | 83 | 1011.6 |
| 20260506115507 | 59 | 236 | 6.0 | 9.0 | 0.00 | 0.00 | 0.00 | 83 | 1011.6 |
| 20260506115011 | 59 | 232 | 6.0 | 9.0 | 0.00 | 0.00 | 0.00 | 83 | 1011.5 |
| 20260506114513 | 59 | 198 | 6.0 | 10.0 | 0.00 | 0.00 | 0.00 | 83 | 1011.7 |
| 20260506114010 | 58 | 242 | 5.0 | 10.0 | 0.00 | 0.00 | 0.00 | 84 | 1011.6 |
| 20260506113508 | 58 | 252 | 5.0 | 9.0 | 0.00 | 0.00 | 0.00 | 84 | 1011.6 |
| 20260506113016 | 58 | 231 | 6.0 | 9.0 | 0.00 | 0.00 | 0.00 | 84 | 1011.7 |
| 20260506112502 | 58 | 213 | 5.0 | 9.0 | 0.00 | 0.00 | 0.00 | 84 | 1011.7 |
| 20260506112002 | 58 | 225 | 5.0 | 10.0 | 0.00 | 0.00 | 0.00 | 84 | 1011.6 |
| 20260506111503 | 58 | 234 | 6.0 | 10.0 | 0.00 | 0.00 | 0.00 | 85 | 1011.6 |
| 20260506111004 | 58 | 213 | 6.0 | 9.0 | 0.00 | 0.00 | 0.00 | 85 | 1011.6 |
| 20260506110504 | 57 | 236 | 5.0 | 9.0 | 0.00 | 0.00 | 0.00 | 85 | 1011.4 |
| 20260506110008 | 57 | 220 | 5.0 | 9.0 | 0.00 | 0.00 | 0.00 | 85 | 1011.3 |
| 20260506105505 | 57 | 235 | 5.0 | 9.0 | 0.00 | 0.00 | 0.00 | 86 | 1011.6 |
| 20260506105005 | 57 | 201 | 6.0 | 9.0 | 0.00 | 0.00 | 0.00 | 86 | 1011.6 |
| 20260506104513 | 57 | 242 | 6.0 | 9.0 | 0.00 | 0.00 | 0.00 | 86 | 1011.5 |
| 20260506104009 | 57 | 236 | 6.0 | 9.0 | 0.00 | 0.00 | 0.00 | 85 | 1011.5 |
| 20260506103505 | 57 | 249 | 5.0 | 10.0 | 0.00 | 0.00 | 0.00 | 85 | 1011.5 |
| 20260506103034 | 57 | 246 | 5.0 | 10.0 | 0.00 | 0.00 | 0.00 | 85 | 1011.4 |
| 20260506102511 | 57 | 236 | 5.0 | 10.0 | 0.00 | 0.00 | 0.00 | 86 | 1011.3 |
| 20260506102008 | 57 | 213 | 5.0 | 10.0 | 0.00 | 0.00 | 0.00 | 86 | 1011.3 |
| 20260506101519 | 57 | 259 | 5.0 | 10.0 | 0.00 | 0.00 | 0.00 | 86 | 1011.2 |
| 20260506101002 | 57 | 227 | 6.0 | 10.0 | 0.00 | 0.00 | 0.00 | 86 | 1011.3 |
| 20260506100502 | 57 | 241 | 5.0 | 9.0 | 0.00 | 0.00 | 0.00 | 86 | 1011.2 |
| 20260506100005 | 57 | 200 | 5.0 | 9.0 | 0.00 | 0.00 | 0.00 | 86 | 1011.2 |
| 20260506095503 | 57 | 238 | 5.0 | 10.0 | 0.00 | 0.00 | 0.00 | 86 | 1011.3 |
| 20260506095004 | 57 | 236 | 5.0 | 10.0 | 0.00 | 0.00 | 0.00 | 86 | 1011.2 |
| 20260506094510 | 57 | 248 | 5.0 | 8.0 | 0.00 | 0.00 | 0.00 | 86 | 1011.3 |
| 20260506094003 | 57 | 227 | 5.0 | 11.0 | 0.00 | 0.00 | 0.00 | 86 | 1011.3 |
| 20260506093503 | 57 | 230 | 6.0 | 11.0 | 0.00 | 0.00 | 0.00 | 85 | 1011.3 |
| 20260506093020 | 57 | 236 | 6.0 | 10.0 | 0.00 | 0.00 | 0.00 | 85 | 1011.4 |
| 20260506092503 | 57 | 242 | 6.0 | 9.0 | 0.00 | 0.00 | 0.00 | 86 | 1011.3 |
| 20260506092007 | 57 | 231 | 5.0 | 9.0 | 0.00 | 0.00 | 0.00 | 86 | 1011.3 |
| 20260506091519 | 57 | 234 | 5.0 | 9.0 | 0.00 | 0.00 | 0.00 | 85 | 1011.2 |
| 20260506091010 | 57 | 232 | 5.0 | 10.0 | 0.00 | 0.00 | 0.00 | 85 | 1011.3 |
| 20260506090507 | 57 | 233 | 6.0 | 12.0 | 0.00 | 0.00 | 0.00 | 85 | 1011.3 |
| 20260506090021 | 57 | 249 | 5.0 | 12.0 | 0.00 | 0.00 | 0.00 | 85 | 1011.5 |
| 20260506085503 | 57 | 236 | 5.0 | 8.0 | 0.00 | 0.00 | 0.00 | 85 | 1011.5 |
| 20260506085004 | 57 | 234 | 5.0 | 8.0 | 0.00 | 0.00 | 0.00 | 85 | 1011.6 |
| 20260506084511 | 57 | 243 | 5.0 | 8.0 | 0.00 | 0.00 | 0.00 | 85 | 1011.6 |
| 20260506084003 | 57 | 205 | 5.0 | 9.0 | 0.00 | 0.00 | 0.00 | 85 | 1011.7 |
| 20260506083504 | 57 | 237 | 5.0 | 9.0 | 0.00 | 0.00 | 0.00 | 85 | 1011.6 |
| 20260506083010 | 57 | 236 | 5.0 | 9.0 | 0.00 | 0.00 | 0.00 | 85 | 1011.6 |
| 20260506082506 | 58 | 247 | 5.0 | 10.0 | 0.00 | 0.00 | 0.00 | 85 | 1011.6 |
| 20260506082004 | 58 | 211 | 6.0 | 11.0 | 0.00 | 0.00 | 0.00 | 85 | 1011.5 |
| 20260506081518 | 58 | 227 | 6.0 | 11.0 | 0.00 | 0.00 | 0.00 | 85 | 1011.5 |
| 20260506081010 | 58 | 233 | 5.0 | 9.0 | 0.00 | 0.00 | 0.00 | 84 | 1011.5 |
| 20260506080505 | 58 | 225 | 6.0 | 10.0 | 0.00 | 0.00 | 0.00 | 84 | 1011.6 |
| 20260506073502 | 58 | 223 | 6.0 | 10.0 | 0.00 | 0.00 | 0.00 | 84 | 1011.7 |
| 20260506073010 | 58 | 229 | 6.0 | 10.0 | 0.00 | 0.00 | 0.00 | 84 | 1011.6 |
| 20260506072506 | 58 | 233 | 6.0 | 11.0 | 0.00 | 0.00 | 0.00 | 83 | 1011.7 |
| 20260506072008 | 58 | 232 | 6.0 | 11.0 | 0.00 | 0.00 | 0.00 | 84 | 1011.7 |
| 20260506071517 | 58 | 236 | 6.0 | 12.0 | 0.00 | 0.00 | 0.00 | 84 | 1011.5 |
| 20260506071005 | 58 | 238 | 5.0 | 12.0 | 0.00 | 0.00 | 0.00 | 84 | 1011.7 |
| 20260506070506 | 58 | 253 | 6.0 | 10.0 | 0.00 | 0.00 | 0.00 | 84 | 1011.6 |
| 20260506062502 | 58 | 250 | 6.0 | 10.0 | 0.00 | 0.00 | 0.00 | 84 | 1011.6 |
| 20260506062002 | 58 | 249 | 6.0 | 11.0 | 0.00 | 0.00 | 0.00 | 84 | 1011.6 |
| 20260506061510 | 58 | 189 | 6.0 | 11.0 | 0.00 | 0.00 | 0.00 | 84 | 1011.6 |
| 20260506061005 | 58 | 234 | 6.0 | 10.0 | 0.00 | 0.00 | 0.00 | 84 | 1011.7 |
| 20260506060505 | 58 | 237 | 6.0 | 10.0 | 0.00 | 0.00 | 0.00 | 84 | 1011.7 |
| 20260506051003 | 58 | 244 | 6.0 | 10.0 | 0.00 | 0.00 | 0.00 | 83 | 1012.0 |
| 20260506050502 | 58 | 229 | 7.0 | 11.0 | 0.00 | 0.00 | 0.00 | 83 | 1012.1 |
| 20260506045007 | 58 | 263 | 6.0 | 10.0 | 0.00 | 0.00 | 0.00 | 83 | 1012.0 |
| 20260506044521 | 59 | 246 | 6.0 | 10.0 | 0.00 | 0.00 | 0.00 | 83 | 1012.2 |
| 20260506044007 | 59 | 249 | 6.0 | 10.0 | 0.00 | 0.00 | 0.00 | 83 | 1012.3 |
| 20260506043509 | 59 | 236 | 6.0 | 10.0 | 0.00 | 0.00 | 0.00 | 83 | 1012.3 |
| 20260506043024 | 59 | 263 | 6.0 | 10.0 | 0.00 | 0.00 | 0.00 | 83 | 1012.3 |
| 20260506042510 | 59 | 249 | 7.0 | 10.0 | 0.00 | 0.00 | 0.00 | 82 | 1012.3 |
| 20260506042012 | 59 | 211 | 7.0 | 10.0 | 0.00 | 0.00 | 0.00 | 82 | 1012.2 |
| 20260506041528 | 59 | 229 | 7.0 | 10.0 | 0.00 | 0.00 | 0.00 | 82 | 1012.3 |
| 20260506041010 | 59 | 221 | 6.0 | 10.0 | 0.00 | 0.00 | 0.00 | 82 | 1012.2 |
| 20260506040509 | 59 | 248 | 7.0 | 10.0 | 0.00 | 0.00 | 0.00 | 82 | 1012.3 |
| 20260506040033 | 59 | 246 | 6.0 | 9.0 | 0.00 | 0.00 | 0.00 | 81 | 1012.2 |
| 20260506035503 | 59 | 238 | 6.0 | 10.0 | 0.00 | 0.00 | 0.00 | 81 | 1012.2 |
| 20260506035004 | 59 | 244 | 6.0 | 11.0 | 0.00 | 0.00 | 0.00 | 80 | 1012.2 |
| 20260506034517 | 59 | 256 | 7.0 | 11.0 | 0.00 | 0.00 | 0.00 | 80 | 1012.2 |
| 20260506034006 | 59 | 252 | 7.0 | 13.0 | 0.00 | 0.00 | 0.00 | 80 | 1012.2 |
| 20260506033508 | 59 | 239 | 6.0 | 13.0 | 0.00 | 0.00 | 0.00 | 79 | 1012.2 |
| 20260506033020 | 59 | 246 | 6.0 | 10.0 | 0.00 | 0.00 | 0.00 | 79 | 1012.1 |
| 20260506032509 | 59 | 227 | 7.0 | 10.0 | 0.00 | 0.00 | 0.00 | 80 | 1012.1 |
| 20260506032010 | 59 | 231 | 6.0 | 9.0 | 0.00 | 0.00 | 0.00 | 80 | 1012.0 |
| 20260506031524 | 59 | 255 | 6.0 | 9.0 | 0.00 | 0.00 | 0.00 | 80 | 1012.0 |
| 20260506031007 | 59 | 248 | 6.0 | 11.0 | 0.00 | 0.00 | 0.00 | 79 | 1012.0 |
| 20260506030507 | 59 | 242 | 5.0 | 11.0 | 0.00 | 0.00 | 0.00 | 79 | 1012.0 |
| 20260506030028 | 59 | 244 | 6.0 | 11.0 | 0.00 | 0.00 | 0.00 | 79 | 1011.9 |
| 20260506025512 | 59 | 245 | 6.0 | 11.0 | 0.00 | 0.00 | 0.00 | 79 | 1012.0 |
| 20260506025012 | 59 | 226 | 5.0 | 11.0 | 0.00 | 0.00 | 0.00 | 79 | 1012.0 |
| 20260506024526 | 59 | 224 | 5.0 | 9.0 | 0.00 | 0.00 | 0.00 | 79 | 1012.0 |
| 20260506024008 | 59 | 231 | 6.0 | 9.0 | 0.00 | 0.00 | 0.00 | 79 | 1012.0 |
| 20260506023508 | 59 | 243 | 6.0 | 10.0 | 0.00 | 0.00 | 0.00 | 79 | 1011.9 |
| 20260506023034 | 59 | 236 | 6.0 | 10.0 | 0.00 | 0.00 | 0.00 | 78 | 1011.9 |
| 20260506022507 | 59 | 232 | 6.0 | 9.0 | 0.00 | 0.00 | 0.00 | 78 | 1012.0 |
| 20260506022012 | 60 | 256 | 6.0 | 10.0 | 0.00 | 0.00 | 0.00 | 78 | 1011.9 |
| 20260506021536 | 60 | 239 | 6.0 | 10.0 | 0.00 | 0.00 | 0.00 | 77 | 1011.8 |
| 20260506021009 | 60 | 224 | 6.0 | 11.0 | 0.00 | 0.00 | 0.00 | 77 | 1011.9 |
| 20260506020509 | 60 | 227 | 6.0 | 11.0 | 0.00 | 0.00 | 0.00 | 77 | 1011.8 |
| 20260506020006 | 60 | 227 | 6.0 | 11.0 | 0.00 | 0.00 | 0.00 | 77 | 1011.8 |
| 20260506015503 | 60 | 236 | 7.0 | 11.0 | 0.00 | 0.00 | 0.00 | 77 | 1011.8 |
| 20260506015003 | 60 | 234 | 6.0 | 10.0 | 0.00 | 0.00 | 0.00 | 77 | 1011.8 |
| 20260506014513 | 60 | 227 | 6.0 | 10.0 | 0.00 | 0.00 | 0.00 | 76 | 1011.8 |
| 20260506014004 | 60 | 251 | 6.0 | 10.0 | 0.00 | 0.00 | 0.00 | 76 | 1011.7 |
| 20260506013504 | 60 | 260 | 7.0 | 10.0 | 0.00 | 0.00 | 0.00 | 76 | 1011.6 |
| 20260506013021 | 60 | 234 | 7.0 | 10.0 | 0.00 | 0.00 | 0.00 | 76 | 1011.7 |
| 20260506012507 | 60 | 240 | 7.0 | 10.0 | 0.00 | 0.00 | 0.00 | 76 | 1011.5 |
| 20260506012008 | 60 | 233 | 7.0 | 11.0 | 0.00 | 0.00 | 0.00 | 75 | 1011.5 |
| 20260506011523 | 60 | 236 | 7.0 | 11.0 | 0.00 | 0.00 | 0.00 | 75 | 1011.5 |
| 20260506011003 | 60 | 251 | 7.0 | 11.0 | 0.00 | 0.00 | 0.00 | 76 | 1011.4 |
| 20260506010504 | 60 | 241 | 7.0 | 10.0 | 0.00 | 0.00 | 0.00 | 76 | 1011.4 |
| 20260506010005 | 60 | 242 | 7.0 | 10.0 | 0.00 | 0.00 | 0.00 | 76 | 1011.4 |
| 20260506005504 | 60 | 225 | 6.0 | 10.0 | 0.00 | 0.00 | 0.00 | 76 | 1011.4 |
| 20260506005003 | 60 | 242 | 6.0 | 11.0 | 0.00 | 0.00 | 0.00 | 76 | 1011.3 |
| 20260506004512 | 60 | 238 | 7.0 | 11.0 | 0.00 | 0.00 | 0.00 | 76 | 1011.2 |
| 20260506004008 | 60 | 248 | 7.0 | 10.0 | 0.00 | 0.00 | 0.00 | 76 | 1011.2 |
| 20260506003507 | 60 | 202 | 6.0 | 10.0 | 0.00 | 0.00 | 0.00 | 75 | 1011.1 |
| 20260506003017 | 60 | 252 | 6.0 | 11.0 | 0.00 | 0.00 | 0.00 | 75 | 1011.0 |
| 20260506002504 | 60 | 241 | 7.0 | 12.0 | 0.00 | 0.00 | 0.00 | 75 | 1010.8 |
| 20260506002009 | 60 | 241 | 6.0 | 12.0 | 0.00 | 0.00 | 0.00 | 75 | 1010.7 |
| 20260506001520 | 60 | 220 | 6.0 | 10.0 | 0.00 | 0.00 | 0.00 | 76 | 1010.6 |
| 20260506001008 | 60 | 250 | 7.0 | 12.0 | 0.00 | 0.00 | 0.00 | 76 | 1010.4 |
| 20260506000510 | 60 | 244 | 7.0 | 12.0 | 0.00 | 0.00 | 0.00 | 76 | 1010.3 |
| 20260506000026 | 60 | 170 | 7.0 | 11.0 | 0.00 | 0.00 | 0.00 | 76 | 1010.3 |
| 20260505235503 | 59 | 238 | 7.0 | 11.0 | 0.00 | 0.00 | 0.00 | 76 | 1010.2 |
| 20260505235004 | 59 | 242 | 7.0 | 10.0 | 0.00 | 0.00 | 0.00 | 76 | 1010.1 |
| 20260505234508 | 59 | 241 | 7.0 | 10.0 | 0.00 | 0.00 | 0.00 | 76 | 1010.2 |
| 20260505234004 | 59 | 241 | 6.0 | 10.0 | 0.00 | 0.00 | 0.00 | 76 | 1010.2 |
| 20260505233508 | 59 | 231 | 7.0 | 11.0 | 0.00 | 0.00 | 0.00 | 76 | 1010.1 |
| 20260505233008 | 59 | 238 | 7.0 | 11.0 | 0.00 | 0.00 | 0.00 | 76 | 1010.1 |
| 20260505232503 | 59 | 263 | 7.0 | 11.0 | 0.00 | 0.00 | 0.00 | 76 | 1010.1 |
| 20260505232003 | 60 | 229 | 6.0 | 10.0 | 0.00 | 0.00 | 0.00 | 76 | 1010.2 |
| 20260505231532 | 60 | 250 | 6.0 | 12.0 | 0.00 | 0.00 | 0.00 | 76 | 1010.1 |
| 20260505231011 | 60 | 246 | 7.0 | 12.0 | 0.00 | 0.00 | 0.00 | 76 | 1010.1 |
| 20260505230508 | 60 | 242 | 7.0 | 10.0 | 0.00 | 0.00 | 0.00 | 76 | 1010.0 |
| 20260505230026 | 60 | 249 | 6.0 | 11.0 | 0.00 | 0.00 | 0.00 | 76 | 1010.1 |
| 20260505225506 | 60 | 249 | 6.0 | 10.0 | 0.00 | 0.00 | 0.00 | 76 | 1010.0 |
| 20260505225009 | 60 | 236 | 6.0 | 10.0 | 0.00 | 0.00 | 0.00 | 76 | 1010.0 |
| 20260505224524 | 60 | 217 | 6.0 | 10.0 | 0.00 | 0.00 | 0.00 | 76 | 1010.1 |
| 20260505224003 | 60 | 238 | 5.0 | 10.0 | 0.00 | 0.00 | 0.00 | 75 | 1009.9 |
| 20260505223502 | 60 | 237 | 6.0 | 10.0 | 0.00 | 0.00 | 0.00 | 75 | 1009.9 |
| 20260505223009 | 60 | 250 | 6.0 | 9.0 | 0.00 | 0.00 | 0.00 | 75 | 1010.0 |
| 20260505222503 | 60 | 254 | 6.0 | 12.0 | 0.00 | 0.00 | 0.00 | 75 | 1009.8 |
| 20260505222008 | 60 | 246 | 6.0 | 12.0 | 0.00 | 0.00 | 0.00 | 75 | 1009.8 |
| 20260505221514 | 60 | 198 | 7.0 | 11.0 | 0.00 | 0.00 | 0.00 | 74 | 1009.7 |
| 20260505221007 | 60 | 258 | 7.0 | 11.0 | 0.00 | 0.00 | 0.00 | 74 | 1009.7 |
| 20260505220507 | 60 | 234 | 7.0 | 11.0 | 0.00 | 0.00 | 0.00 | 74 | 1009.7 |
| 20260505220022 | 60 | 252 | 6.0 | 12.0 | 0.00 | 0.00 | 0.00 | 74 | 1009.8 |
| 20260505215508 | 60 | 257 | 7.0 | 12.0 | 0.00 | 0.00 | 0.00 | 74 | 1009.8 |
| 20260505215008 | 60 | 247 | 6.0 | 11.0 | 0.00 | 0.00 | 0.00 | 73 | 1009.9 |
| 20260505214524 | 61 | 248 | 7.0 | 11.0 | 0.00 | 0.00 | 0.00 | 72 | 1009.8 |
| 20260505214011 | 61 | 238 | 7.0 | 11.0 | 0.00 | 0.00 | 0.00 | 72 | 1009.8 |
| 20260505213512 | 62 | 233 | 6.0 | 10.0 | 0.00 | 0.00 | 0.00 | 71 | 1010.0 |
| 20260505213034 | 62 | 246 | 5.0 | 9.0 | 0.00 | 0.00 | 0.00 | 71 | 1009.9 |
| 20260505212503 | 62 | 242 | 5.0 | 9.0 | 0.00 | 0.00 | 0.00 | 71 | 1009.9 |
| 20260505212007 | 62 | 248 | 6.0 | 9.0 | 0.00 | 0.00 | 0.00 | 70 | 1009.8 |
| 20260505211513 | 63 | 234 | 5.0 | 8.0 | 0.00 | 0.00 | 0.00 | 70 | 1009.6 |
| 20260505211006 | 63 | 254 | 5.0 | 8.0 | 0.00 | 0.00 | 0.00 | 70 | 1009.4 |
| 20260505210506 | 63 | 242 | 4.0 | 8.0 | 0.00 | 0.00 | 0.00 | 70 | 1009.4 |
| 20260505210016 | 63 | 233 | 5.0 | 9.0 | 0.00 | 0.00 | 0.00 | 69 | 1009.5 |
| 20260505205511 | 64 | 230 | 5.0 | 9.0 | 0.00 | 0.00 | 0.00 | 69 | 1009.6 |
| 20260505205009 | 64 | 218 | 4.0 | 7.0 | 0.00 | 0.00 | 0.00 | 69 | 1009.5 |
| 20260505204521 | 64 | 244 | 4.0 | 6.0 | 0.00 | 0.00 | 0.00 | 69 | 1009.6 |
| 20260505204006 | 65 | 227 | 4.0 | 6.0 | 0.00 | 0.00 | 0.00 | 68 | 1009.5 |
| 20260505203508 | 65 | 234 | 4.0 | 8.0 | 0.00 | 0.00 | 0.00 | 69 | 1009.6 |
| 20260505203030 | 65 | 238 | 4.0 | 8.0 | 0.00 | 0.00 | 0.00 | 68 | 1009.6 |
| 20260505202507 | 65 | 251 | 4.0 | 8.0 | 0.00 | 0.00 | 0.00 | 69 | 1009.6 |
| 20260505202010 | 65 | 240 | 4.0 | 6.0 | 0.00 | 0.00 | 0.00 | 69 | 1009.6 |
| 20260505201532 | 65 | 221 | 4.0 | 7.0 | 0.00 | 0.00 | 0.00 | 69 | 1009.5 |
| 20260505201003 | 65 | 229 | 4.0 | 7.0 | 0.00 | 0.00 | 0.00 | 68 | 1009.6 |
| 20260505200504 | 65 | 246 | 4.0 | 8.0 | 0.00 | 0.00 | 0.00 | 69 | 1009.6 |
| 20260505200014 | 65 | 213 | 4.0 | 8.0 | 0.00 | 0.00 | 0.00 | 68 | 1009.6 |
| 20260505195503 | 65 | 225 | 4.0 | 9.0 | 0.00 | 0.00 | 0.00 | 68 | 1009.7 |
| 20260505195005 | 65 | 246 | 5.0 | 9.0 | 0.00 | 0.00 | 0.00 | 66 | 1009.7 |
| 20260505194519 | 66 | 225 | 4.0 | 9.0 | 0.00 | 0.00 | 0.00 | 67 | 1009.8 |
| 20260505194010 | 66 | 247 | 4.0 | 9.0 | 0.00 | 0.00 | 0.00 | 66 | 1010.0 |
| 20260505193508 | 66 | 228 | 4.0 | 6.0 | 0.00 | 0.00 | 0.00 | 67 | 1010.2 |
| 20260505193030 | 66 | 236 | 4.0 | 6.0 | 0.00 | 0.00 | 0.00 | 67 | 1010.2 |
| 20260505192509 | 66 | 243 | 3.0 | 6.0 | 0.00 | 0.00 | 0.00 | 67 | 1010.2 |
| 20260505192007 | 66 | 213 | 3.0 | 6.0 | 0.00 | 0.00 | 0.00 | 67 | 1010.2 |
| 20260505191526 | 66 | 222 | 4.0 | 6.0 | 0.00 | 0.00 | 0.00 | 66 | 1010.1 |
| 20260505191008 | 67 | 226 | 4.0 | 5.0 | 0.00 | 0.00 | 0.00 | 67 | 1010.1 |
| 20260505190510 | 67 | 220 | 4.0 | 5.0 | 0.00 | 0.00 | 0.00 | 67 | 1010.1 |
| 20260505190013 | 67 | 236 | 4.0 | 6.0 | 0.00 | 0.00 | 0.00 | 67 | 1010.2 |
| 20260505185509 | 67 | 225 | 4.0 | 6.0 | 0.00 | 0.00 | 0.00 | 66 | 1010.2 |
| 20260505185008 | 68 | 263 | 3.0 | 5.0 | 0.00 | 0.00 | 0.00 | 66 | 1010.3 |
| 20260505184518 | 68 | 218 | 3.0 | 5.0 | 0.00 | 0.00 | 0.00 | 66 | 1010.3 |
| 20260505184008 | 68 | 213 | 3.0 | 6.0 | 0.00 | 0.00 | 0.00 | 66 | 1010.4 |
| 20260505183511 | 68 | 187 | 3.0 | 6.0 | 0.00 | 0.00 | 0.00 | 65 | 1010.4 |
| 20260505183023 | 68 | 211 | 4.0 | 6.0 | 0.00 | 0.00 | 0.00 | 67 | 1010.5 |
| 20260505182507 | 68 | 253 | 3.0 | 6.0 | 0.00 | 0.00 | 0.00 | 66 | 1010.6 |
| 20260505182012 | 68 | 248 | 3.0 | 6.0 | 0.00 | 0.00 | 0.00 | 66 | 1010.6 |
| 20260505181530 | 67 | 194 | 3.0 | 6.0 | 0.00 | 0.00 | 0.00 | 67 | 1010.8 |
| 20260505181009 | 67 | 226 | 3.0 | 5.0 | 0.00 | 0.00 | 0.00 | 66 | 1010.7 |
| 20260505180511 | 67 | 222 | 3.0 | 6.0 | 0.00 | 0.00 | 0.00 | 67 | 1010.8 |
| 20260505180026 | 67 | 197 | 4.0 | 6.0 | 0.00 | 0.00 | 0.00 | 65 | 1010.9 |
| 20260505175509 | 67 | 217 | 4.0 | 6.0 | 0.00 | 0.00 | 0.00 | 67 | 1010.8 |
| 20260505175008 | 67 | 238 | 4.0 | 5.0 | 0.00 | 0.00 | 0.00 | 67 | 1011.0 |
| 20260505174526 | 67 | 238 | 3.0 | 7.0 | 0.00 | 0.00 | 0.00 | 67 | 1011.1 |
| 20260505174008 | 67 | 254 | 4.0 | 7.0 | 0.00 | 0.00 | 0.00 | 65 | 1011.1 |
| 20260505173507 | 67 | 223 | 4.0 | 6.0 | 0.00 | 0.00 | 0.00 | 65 | 1011.1 |
| 20260505173017 | 67 | 216 | 3.0 | 6.0 | 0.00 | 0.00 | 0.00 | 65 | 1011.1 |